Terug naar catalogus

ONEWEB-0597

ActiefCommunicatiePO
NORAD 54663·PAYLOAD·🇬🇧 United Kingdom

Gelanceerd Dec 8, 2022 vanaf Cape Canaveral Space Force Station

Loading…

Volgende Passages (komende 24 uur)

TLE

VersSource: CelesTrak SupGP

Epoch: Sep 14, 2026, 22:05 UTC

1 54663C 22166X   26257.92062917  .00000422  00000+0  10233-2 0  2574
2 54663  87.9273 226.1226 0002198  84.9779 315.1511 13.21827251    17

Volg ONEWEB-0597 in realtime met AllMySat

Download on the App Store